Grand Island, NE

7:11 AM CDT on April 21, 2018 (GMT -0500)
Central Nebraska Regional

Weather History for KGRI - September, 2012

Change the Weather History Date:

Saturday, September 29, 2012

  Actual Average Record
Temperature  
Mean Temperature 61 °F 59 °F  
Max Temperature 79 °F 72 °F 92 °F (1994)
Min Temperature 43 °F 46 °F 23 °F (1984)
Degree Days  
Heating Degree Days 4 7  
Month to date heating degree days 64 98  
Since 1 July heating degree days 68 108  
Cooling Degree Days 0 1  
Month to date cooling degree days 119 108  
Year to date cooling degree days 1503 1022  
Growing Degree Days 12 (Base 50)    
Moisture  
Dew Point 39 °F    
Average Humidity 48    
Maximum Humidity 76    
Minimum Humidity 20    
Precipitation  
Precipitation 0.00 in 0.07 in 2.89 in (1965)
Month to date precipitation 0.47 2.17  
Year to date precipitation 8.58 22.94  
Snow  
Snow 0.00 in 0.00 in - ()
Month to date snowfall 0.0 0.1  
Since 1 July snowfall 0.0 0.1  
Since 1 September snowfall 0.0 0.1  
Snow Depth 0.00 in    
Sea Level Pressure  
Sea Level Pressure 30.12 in    
Wind  
Wind Speed 3 mph (SSE)    
Max Wind Speed 12 mph    
Max Gust Speed 16 mph    
Visibility 10 miles    
Events      
T = Trace of Precipitation, MM = Missing Value Source: NWS Daily Summary

Daily Weather History Graph

Daily Weather History Graph

Search for Another Location

Airport or City:

Astronomy

Sep. 29, 2012 Rise Set
Actual Time 7:28 AM CDT 7:17 PM CDT
Civil Twilight 7:00 AM CDT 7:45 PM CDT
Nautical Twilight 6:29 AM CDT 8:16 PM CDT
Astronomical Twilight 5:56 AM CDT 8:49 PM CDT
Moon 6:50 PM CDT (9/29) 7:01 AM CDT (9/29)
Length of Visible Light 12h 44m
Length of Day
11h 49m
Full, 100% of the Moon is Illuminated
Sep 29
Full
Sep 29
Full
Oct 8
Last Quarter
Oct 15
New
Oct 21
First Quarter

Hourly Weather History & Observations

Time (CDT) Temp. Windchill Dew Point Humidity Pressure Visibility Wind Dir Wind Speed Gust Speed Precip Events Conditions
12:53 AM 52.0 °F - 37.9 °F 59% 30.14 in 10.0 mi SSE 3.5 mph - N/A   Clear
1:53 AM 46.9 °F - 36.0 °F 66% 30.16 in 10.0 mi Calm Calm - N/A   Clear
2:53 AM 48.0 °F - 36.0 °F 63% 30.16 in 10.0 mi Calm Calm - N/A   Clear
3:53 AM 46.9 °F - 37.0 °F 68% 30.16 in 10.0 mi South 3.5 mph - N/A   Clear
4:53 AM 48.0 °F - 37.9 °F 68% 30.15 in 10.0 mi Calm Calm - N/A   Clear
5:53 AM 46.0 °F - 39.0 °F 76% 30.15 in 10.0 mi Calm Calm - N/A   Clear
6:53 AM 45.0 °F 43.5 °F 37.0 °F 74% 30.17 in 10.0 mi South 3.5 mph - N/A   Clear
7:53 AM 46.0 °F - 39.9 °F 79% 30.19 in 10.0 mi Calm Calm - N/A   Clear
8:53 AM 54.0 °F - 45.0 °F 72% 30.19 in 10.0 mi Calm Calm - N/A   Clear
9:53 AM 63.0 °F - 48.0 °F 58% 30.18 in 10.0 mi SW 4.6 mph - N/A   Clear
10:53 AM 69.1 °F - 46.0 °F 44% 30.17 in 10.0 mi South 4.6 mph - N/A   Clear
11:53 AM 71.1 °F - 45.0 °F 39% 30.16 in 10.0 mi Calm Calm - N/A   Clear
12:53 PM 73.9 °F - 41.0 °F 30% 30.14 in 10.0 mi Calm Calm - N/A   Clear
1:53 PM 75.0 °F - 37.9 °F 26% 30.11 in 10.0 mi Variable 3.5 mph - N/A   Clear
2:53 PM 75.9 °F - 37.0 °F 24% 30.08 in 10.0 mi SE 4.6 mph - N/A   Clear
3:53 PM 78.1 °F - 36.0 °F 22% 30.06 in 10.0 mi SSE 9.2 mph - N/A   Clear
4:53 PM 77.0 °F - 34.0 °F 21% 30.04 in 10.0 mi ESE 3.5 mph - N/A   Clear
5:53 PM 77.0 °F - 34.0 °F 21% 30.04 in 10.0 mi SE 6.9 mph - N/A   Clear
6:53 PM 72.0 °F - 36.0 °F 27% 30.05 in 10.0 mi SSE 4.6 mph - N/A   Clear
7:53 PM 64.9 °F - 37.9 °F 37% 30.06 in 10.0 mi SSE 4.6 mph - N/A   Clear
8:53 PM 60.1 °F - 37.9 °F 44% 30.07 in 10.0 mi SSE 4.6 mph - N/A   Clear
9:53 PM 57.9 °F - 37.0 °F 46% 30.06 in 10.0 mi South 6.9 mph - N/A   Clear
10:53 PM 57.0 °F - 37.0 °F 47% 30.06 in 10.0 mi South 5.8 mph - N/A   Clear
11:53 PM 55.0 °F - 37.9 °F 53% 30.06 in 10.0 mi SSW 4.6 mph - N/A   Clear